Regional Weather Roundup
Issued by NWS

Home | Current Version | Previous Version | Graphics & Text | Print | Product List | Glossary On
Versions: 1 2 3 4 5 6 7 8 9 10 11 12 13 14 15 16 17 18 19 20 21 22 23 24 25 26 27 28 29 30 31 32 33 34 35 36 37 38 39 40 41 42 43 44 45 46 47 48 49 50
000
ASUS43 KOAX 260610
RWRNE

WEATHER ROUNDUP FOR NEBRASKA
NATIONAL WEATHER SERVICE OMAHA NE
100 AM CDT SUN OCT 26 2014

NOTES: SATELLITE DATA IS BEING USED TO AUGMENT CLOUD COVER ABOVE
       12000 FEET.
       "FAIR" INDICATES FEW OR NO CLOUDS BELOW 12,000 FEET WITH NO
       SIGNIFICANT WEATHER AND/OR OBSTRUCTIONS TO VISIBILITY.

  * THESE STATIONS DO NOT REPORT WEATHER SUCH AS RAIN...SNOW OR FOG.

NEZ001>004-019>022-054>056-260700-
NEBRASKA PANHANDLE

CITY           SKY/WX    TMP DP  RH WIND       PRES   REMARKS
SCOTTSBLUFF    CLEAR     49  38  65 E12       29.89F
6HR MIN TEMP:  47; 6HR MAX TEMP:  67;

ALLIANCE       PTCLDY    48  42  80 S13       29.89F
6HR MIN TEMP:  42; 6HR MAX TEMP:  60;

CHADRON        LGT RAIN  62  40  44 S24G32    29.81F
6HR MIN TEMP:  50; 6HR MAX TEMP:  65; 6HR PCP: TRACE;

KIMBALL        CLEAR     47  33  58 S6        29.93F
SIDNEY         CLEAR     47  40  76 SE7       29.93F
6HR MIN TEMP:  46; 6HR MAX TEMP:  60;

$$

NEZ057>060-069>072-079>082-260700-
SOUTHWEST NEBRASKA

CITY           SKY/WX    TMP DP  RH WIND       PRES   REMARKS
NORTH PLATTE   CLEAR     47  42  83 SE9       29.91F
6HR MIN TEMP:  45; 6HR MAX TEMP:  62;

IMPERIAL       CLEAR     53  49  86 E6        29.89F
6HR MIN TEMP:  53; 6HR MAX TEMP:  67;

LEXINGTON      CLEAR     52  44  75 NE7       29.92F
MCCOOK         CLEAR     53  50  89 E7        29.89F
6HR MIN TEMP:  53; 6HR MAX TEMP:  72;

OGALLALA       CLEAR     52  46  80 E7        29.91F
$$

NEZ005>010-023>029-035>040-094-260700-
NORTH CENTRAL NEBRASKA

CITY           SKY/WX    TMP DP  RH WIND       PRES   REMARKS
VALENTINE      CLEAR     45  36  70 E7        29.93F
6HR MIN TEMP:  44; 6HR MAX TEMP:  60;

AINSWORTH      CLEAR     50  37  61 SE10      29.93F
BROKEN BOW     CLEAR     52  42  69 E6        29.94F
6HR MIN TEMP:  52; 6HR MAX TEMP:  62;

O`NEILL        CLEAR     50  37  60 SE7       29.97F
ORD            CLEAR     45  39  79 S5        29.93F
6HR MIN TEMP:  42; 6HR MAX TEMP:  61;

THEDFORD       CLEAR     48  40  75 CALM      29.93F
$$

NEZ041-046>049-061>064-073>077-083>087-260700-
SOUTH CENTRAL NEBRASKA

CITY           SKY/WX    TMP DP  RH WIND       PRES   REMARKS
GRAND ISLAND   CLEAR     54  44  69 E7        29.94F
6HR MIN TEMP:  54; 6HR MAX TEMP:  62;

AURORA         CLEAR     55  42  63 E8        29.95F
HASTINGS       CLEAR     57  42  57 E9        29.92F
6HR MIN TEMP:  56; 6HR MAX TEMP:  64;

HEBRON         CLEAR     57  45  65 E3        29.93F
HOLDREGE       CLEAR     54  46  73 E10       29.90F
KEARNEY *      CLEAR     52  43  71 NE8       29.93F
YORK           CLEAR     54  45  71 E9        29.96F
$$

NEZ011>018-030>034-042>045-260700-
NORTHEAST NEBRASKA

CITY           SKY/WX    TMP DP  RH WIND       PRES   REMARKS
NORFOLK        CLEAR     50  38  63 SE9       29.98F
6HR MIN TEMP:  49; 6HR MAX TEMP:  59;

ALBION         CLEAR     52  38  58 SE7       29.97F
BLAIR          CLEAR     56  38  49 E10       29.98F
COLUMBUS *     CLEAR     50  37  62 E6        29.99F
FREMONT        CLEAR     55  38  53 E6        29.99F
TEKAMAH        CLEAR     48  39  71 CALM      30.00F
6HR MIN TEMP:  47; 6HR MAX TEMP:  62;

WAYNE          CLEAR     51  37  60 E8        29.99F
$$

NEZ050>053-065>068-078-088>093-260700-
SOUTHEAST NEBRASKA

CITY           SKY/WX    TMP DP  RH WIND       PRES   REMARKS
LINCOLN        CLEAR     58  43  57 E7        29.98F
6HR MIN TEMP:  53; 6HR MAX TEMP:  61;

OMAHA EPPLEY   CLEAR     59  37  44 SE9       30.00F
6HR MIN TEMP:  57; 6HR MAX TEMP:  66;

BEATRICE       CLEAR     58  46  66 E8        29.96F
FALLS CITY     CLEAR     57  46  66 E8        29.98F
6HR MIN TEMP:  57; 6HR MAX TEMP:  70;

NEBRASKA CITY  CLEAR     55  39  53 E5        30.00S
PLATTSMOUTH    CLEAR     55  40  57 E8        29.99F
$$

NEZ044-045-051>053-067-260700-
OMAHA AREA

CITY           SKY/WX    TMP DP  RH WIND       PRES   REMARKS
OMAHA EPPLEY   CLEAR     59  37  44 SE9       30.00F
6HR MIN TEMP:  57; 6HR MAX TEMP:  66;

BLAIR          CLEAR     56  38  49 E10       29.98F
FREMONT        CLEAR     55  38  53 E6        29.99F
MILLARD        CLEAR     58  40  49 SE5       29.99F
OFFUTT AFB     CLEAR     56  43  62 E5        29.99F
PLATTSMOUTH    CLEAR     55  40  57 E8        29.99F
WAHOO          FAIR      51  42  70 E5        29.98F
$$



USA.gov is the U.S. government's official web portal to all federal, state and local government web resources and services.